+ View the NASA Portal
+ Center for Near-Earth Object Studies
IMPORTANT:
The SSD Announcement email list is now available. Major changes are coming in the near future, including possible hostname and/or URL changes. To be notified of such changes, subscribe to this email list.
Please visit
this page
for more details.
Don't show this message again
JPL Small-Body Database Browser
Search:
[
help
]
277872 (2006 JG37)
Classification:
Main-belt Asteroid
SPK-ID:
2277872
[
Ephemeris
|
Orbit Diagram
|
Orbital Elements
|
Mission Design
|
Physical Parameters
|
Discovery Circumstances
|
Close-Approach Data
]
[ show orbit diagram ]
Orbital Elements at Epoch 2458600.5 (2019-Apr-27.0) TDB
Reference:
JPL 10
(heliocentric ecliptic J2000)
Element
Value
Uncertainty (1-sigma)
Units
e
.0668273702606674
1.273e-07
a
2.97686458342642
3.9186e-08
au
q
2.777928551693916
3.7431e-07
au
i
5.594719315584404
1.1761e-05
deg
node
153.4422687630588
8.8055e-05
deg
peri
71.41374486106659
0.00011368
deg
M
181.2083273130606
7.238e-05
deg
t
p
2459532.212307422838
(2021-Nov-13.71230742)
0.00037786
TDB
period
1876.018192746197
5.14
3.7043e-05
1.014e-07
d
yr
n
.1918957936506023
3.7891e-09
deg/d
Q
3.175800615158925
4.1805e-08
au
Orbit Determination Parameters
# obs. used (total)
137
data-arc span
8640 days (23.66 yr)
first obs. used
1995-02-21
last obs. used
2018-10-18
planetary ephem.
DE431
SB-pert. ephem.
SB431-N16
condition code
0
norm. resid. RMS
.71622
source
ORB
producer
Otto Matic
solution date
2018-Oct-31 04:26:26
Additional Information
Earth MOID
= 1.77566 au
Jupiter MOID
= 1.81112 au
T_jup
= 3.250
[ show covariance matrix ]
[
Ephemeris
|
Orbit Diagram
|
Orbital Elements
|
Mission Design
|
Physical Parameters
|
Discovery Circumstances
|
Close-Approach Data
]
Physical Parameter Table
Parameter
Symbol
Value
Units
Sigma
Reference
Notes
absolute magnitude
H
16.3
n/a
MPO455061
277872 (2006 JG37)
Discovered 2006-May-05 by Spacewatch at Kitt Peak
Reference:
20110517/Numbers.arc
Last Updated:
2011-05-20
[ show close-approach data ]
[
Ephemeris
|
Orbit Diagram
|
Orbital Elements
|
Mission Design
|
Physical Parameters
|
Discovery Circumstances
|
Close-Approach Data
]
2019-Dec-09 21:20 UT
(server date/time)
Site Manager:
Ryan S. Park
Webmaster
:
Alan B. Chamberlin